• Em Portugal
  • Lista de países
  • Para 7 dias
  • Temperatura da água
  • Mapas de satélite
  • Mapa do tempo
  • Widgets de tempo
  • user-avatar
    Iniciar Sessão

    Previsão horária em Giumri

    Hoje, 21 Junho, Quinta-feira

    Tempo Temperatura Precipitação Vento Pressão Humidade
    00:00 +14°C° 0,4 mm 2 m/s 635 mmHg 89%
    01:00 +13°C° 0,1 mm 2 m/s 635 mmHg 90%
    02:00 +13°C° 0,1 mm 2 m/s 635 mmHg 91%
    03:00 +12°C° 0 mm 2 m/s 634 mmHg 89%
    04:00 +13°C° 0,1 mm 1 m/s 634 mmHg 88%
    05:00 +13°C° 0,1 mm 1 m/s 635 mmHg 87%
    06:00 +14°C° 0,1 mm 1 m/s 635 mmHg 87%
    07:00 +16°C° 0 mm 1 m/s 636 mmHg 81%
    08:00 +19°C° 0 mm 1 m/s 636 mmHg 75%
    09:00 +21°C° 0 mm 1 m/s 636 mmHg 69%
    10:00 +21°C° 0,3 mm 1 m/s 636 mmHg 66%
    11:00 +21°C° 0,3 mm 2 m/s 636 mmHg 64%
    12:00 +23°C° 0,3 mm 2 m/s 636 mmHg 62%
    13:00 +23°C° 0,8 mm 2 m/s 636 mmHg 62%
    14:00 +24°C° 0,8 mm 2 m/s 636 mmHg 62%
    15:00 +22°C° 0 mm 3 m/s 636 mmHg 63%
    16:00 +23°C° 0,6 mm 2 m/s 636 mmHg 66%
    17:00 +21°C° 0,6 mm 2 m/s 635 mmHg 69%
    18:00 +21°C° 0,6 mm 2 m/s 635 mmHg 73%
    19:00 +19°C° 0,6 mm 2 m/s 635 mmHg 78%
    20:00 +17°C° 0,6 mm 2 m/s 635 mmHg 83%
    21:00 +15°C° 0,6 mm 2 m/s 634 mmHg 89%
    22:00 +15°C° 0,2 mm 2 m/s 634 mmHg 89%
    23:00 +14°C° 0,2 mm 2 m/s 634 mmHg 89%

    Amanhã, 22 Junho, Sexta-feira

    Tempo Temperatura Precipitação Vento Pressão Humidade
    00:00 +14°C° 0,2 mm 2 m/s 634 mmHg 90%
    01:00 +14°C° 0,2 mm 2 m/s 634 mmHg 90%
    02:00 +13°C° 0,2 mm 2 m/s 634 mmHg 91%
    03:00 +13°C° 0,2 mm 2 m/s 634 mmHg 92%
    04:00 +14°C° 0,6 mm 2 m/s 634 mmHg 91%
    05:00 +14°C° 0,6 mm 2 m/s 634 mmHg 90%
    06:00 +15°C° 0,6 mm 2 m/s 634 mmHg 90%
    07:00 +16°C° 0,5 mm 2 m/s 634 mmHg 85%
    08:00 +17°C° 0,5 mm 2 m/s 634 mmHg 80%
    09:00 +19°C° 0,5 mm 2 m/s 634 mmHg 75%
    10:00 +20°C° 0,8 mm 2 m/s 634 mmHg 72%
    11:00 +21°C° 0,8 mm 2 m/s 634 mmHg 68%
    12:00 +22°C° 0,8 mm 3 m/s 634 mmHg 65%
    13:00 +22°C° 1,2 mm 3 m/s 634 mmHg 64%
    14:00 +23°C° 1,2 mm 2 m/s 634 mmHg 64%
    15:00 +23°C° 1,2 mm 2 m/s 634 mmHg 63%
    16:00 +23°C° 1,1 mm 2 m/s 633 mmHg 67%
    17:00 +21°C° 1,1 mm 2 m/s 633 mmHg 70%
    18:00 +20°C° 1,1 mm 2 m/s 633 mmHg 73%
    19:00 +19°C° 0,7 mm 2 m/s 633 mmHg 78%
    20:00 +17°C° 0,7 mm 2 m/s 633 mmHg 82%
    21:00 +15°C° 0,7 mm 2 m/s 632 mmHg 86%
    22:00 +15°C° 0,5 mm 2 m/s 632 mmHg 87%
    23:00 +15°C° 0,5 mm 2 m/s 632 mmHg 88%

    Depois de amanhã, 23 Junho, Sábado

    Tempo Temperatura Precipitação Vento Pressão Humidade
    00:00 +14°C° 0,5 mm 2 m/s 632 mmHg 89%
    01:00 +14°C° 0,1 mm 2 m/s 632 mmHg 89%
    02:00 +13°C° 0,1 mm 2 m/s 632 mmHg 89%
    03:00 +13°C° 0,1 mm 2 m/s 632 mmHg 88%
    04:00 +14°C° 0,1 mm 1 m/s 632 mmHg 87%
    05:00 +14°C° 0,1 mm 1 m/s 632 mmHg 85%
    06:00 +15°C° 0,1 mm 1 m/s 632 mmHg 83%
    07:00 +18°C° 0,1 mm 1 m/s 633 mmHg 76%
    08:00 +20°C° 0,1 mm 1 m/s 633 mmHg 70%
    09:00 +22°C° 0,1 mm 1 m/s 634 mmHg 63%
    10:00 +23°C° 0,8 mm 2 m/s 634 mmHg 61%
    11:00 +24°C° 0,8 mm 2 m/s 634 mmHg 58%
    12:00 +25°C° 0,8 mm 2 m/s 634 mmHg 56%
    13:00 +25°C° 1,1 mm 2 m/s 634 mmHg 56%
    14:00 +25°C° 1,1 mm 2 m/s 634 mmHg 56%
    15:00 +25°C° 1,1 mm 1 m/s 634 mmHg 56%
    16:00 +24°C° 1,1 mm 1 m/s 633 mmHg 60%
    17:00 +24°C° 1,1 mm 1 m/s 633 mmHg 65%
    18:00 +23°C° 1,1 mm 1 m/s 633 mmHg 69%
    19:00 +20°C° 1 mm 2 m/s 633 mmHg 74%
    20:00 +18°C° 1 mm 2 m/s 633 mmHg 78%
    21:00 +16°C° 1 mm 2 m/s 633 mmHg 83%
    22:00 +16°C° 0,5 mm 2 m/s 633 mmHg 83%
    23:00 +15°C° 0,5 mm 2 m/s 633 mmHg 83%

    24 Junho, Domingo

    Tempo Temperatura Precipitação Vento Pressão Humidade
    00:00 +15°C° 0,5 mm 2 m/s 633 mmHg 84%
    01:00 +14°C° 0,1 mm 2 m/s 633 mmHg 83%
    02:00 +14°C° 0,1 mm 2 m/s 633 mmHg 82%
    03:00 +14°C° 0,1 mm 2 m/s 633 mmHg 82%
    04:00 +14°C° 0 mm 2 m/s 633 mmHg 81%
    05:00 +15°C° 0 mm 2 m/s 633 mmHg 80%
    06:00 +16°C° 0 mm 1 m/s 634 mmHg 79%
    07:00 +19°C° 0 mm 1 m/s 634 mmHg 73%
    08:00 +21°C° 0 mm 1 m/s 635 mmHg 66%
    09:00 +23°C° 0 mm 1 m/s 635 mmHg 60%
    10:00 +24°C° 0,1 mm 2 m/s 635 mmHg 58%
    11:00 +25°C° 0,1 mm 2 m/s 635 mmHg 55%
    12:00 +26°C° 0,1 mm 2 m/s 635 mmHg 53%
    13:00 +26°C° 0,6 mm 2 m/s 635 mmHg 53%
    14:00 +26°C° 0,6 mm 2 m/s 635 mmHg 54%
    15:00 +27°C° 0,6 mm 2 m/s 635 mmHg 54%
    16:00 +26°C° 0,7 mm 2 m/s 635 mmHg 58%
    17:00 +25°C° 0,7 mm 2 m/s 635 mmHg 62%
    18:00 +24°C° 0,7 mm 2 m/s 635 mmHg 67%
    19:00 +21°C° 0,3 mm 2 m/s 634 mmHg 71%
    20:00 +19°C° 0,3 mm 2 m/s 634 mmHg 76%
    21:00 +17°C° 0,3 mm 2 m/s 634 mmHg 81%
    22:00 +17°C° 0,4 mm 2 m/s 634 mmHg 80%
    23:00 +16°C° 0,4 mm 2 m/s 634 mmHg 79%

    25 Junho, Segunda-feira

    Tempo Temperatura Precipitação Vento Pressão Humidade
    00:00 +16°C° 0,4 mm 2 m/s 634 mmHg 78%
    01:00 +15°C° 0 mm 2 m/s 634 mmHg 78%
    02:00 +15°C° 0 mm 2 m/s 634 mmHg 77%
    03:00 +14°C° 0 mm 2 m/s 634 mmHg 77%
    04:00 +15°C° 0 mm 2 m/s 634 mmHg 77%
    05:00 +15°C° 0 mm 2 m/s 634 mmHg 76%
    06:00 +16°C° 0 mm 2 m/s 635 mmHg 76%
    07:00 +18°C° 0 mm 2 m/s 635 mmHg 70%
    08:00 +20°C° 0 mm 2 m/s 636 mmHg 64%
    09:00 +24°C° 0 mm 2 m/s 636 mmHg 57%
    10:00 +25°C° 0,1 mm 2 m/s 636 mmHg 55%
    11:00 +26°C° 0,1 mm 2 m/s 636 mmHg 54%
    12:00 +27°C° 0,1 mm 2 m/s 636 mmHg 52%
    13:00 +27°C° 0,4 mm 2 m/s 636 mmHg 52%
    14:00 +27°C° 0,4 mm 2 m/s 636 mmHg 52%
    15:00 +28°C° 0,4 mm 2 m/s 636 mmHg 53%
    16:00 +27°C° 0,4 mm 2 m/s 636 mmHg 58%
    17:00 +26°C° 0,4 mm 3 m/s 636 mmHg 62%
    18:00 +25°C° 0,4 mm 3 m/s 636 mmHg 67%
    19:00 +22°C° 0,3 mm 3 m/s 635 mmHg 73%
    20:00 +20°C° 0,3 mm 3 m/s 635 mmHg 78%
    21:00 +18°C° 0,3 mm 2 m/s 635 mmHg 83%
    22:00 +17°C° 0 mm 2 m/s 635 mmHg 81%
    23:00 +17°C° 0 mm 2 m/s 635 mmHg 79%

    26 Junho, Terça-feira

    Tempo Temperatura Precipitação Vento Pressão Humidade
    00:00 +16°C° 0 mm 2 m/s 634 mmHg 77%
    01:00 +16°C° 0 mm 2 m/s 634 mmHg 77%
    02:00 +16°C° 0 mm 2 m/s 634 mmHg 77%
    03:00 +15°C° 0 mm 2 m/s 634 mmHg 77%
    04:00 +16°C° 0 mm 2 m/s 634 mmHg 77%
    05:00 +17°C° 0 mm 2 m/s 634 mmHg 77%
    06:00 +17°C° 0 mm 2 m/s 634 mmHg 77%
    07:00 +19°C° 0 mm 2 m/s 635 mmHg 70%
    08:00 +23°C° 0 mm 2 m/s 635 mmHg 63%
    09:00 +25°C° 0 mm 2 m/s 636 mmHg 57%
    10:00 +26°C° 0 mm 2 m/s 636 mmHg 54%
    11:00 +27°C° 0 mm 2 m/s 636 mmHg 52%
    12:00 +28°C° 0 mm 3 m/s 636 mmHg 49%
    13:00 +29°C° 0 mm 3 m/s 635 mmHg 49%
    14:00 +29°C° 0 mm 3 m/s 635 mmHg 48%
    15:00 +30°C° 0 mm 3 m/s 635 mmHg 48%
    16:00 +29°C° 0,2 mm 3 m/s 635 mmHg 53%
    17:00 +28°C° 0,2 mm 3 m/s 634 mmHg 58%
    18:00 +27°C° 0,2 mm 3 m/s 634 mmHg 64%
    19:00 +24°C° 0,1 mm 2 m/s 634 mmHg 69%
    20:00 +21°C° 0,1 mm 2 m/s 633 mmHg 75%
    21:00 +19°C° 0,1 mm 2 m/s 633 mmHg 80%
    22:00 +18°C° 0 mm 2 m/s 633 mmHg 79%
    23:00 +18°C° 0 mm 2 m/s 633 mmHg 78%
    Mostrar mais